This is the latest recevied weather packets stored in our database for station/object VK4TOM-13. If no packets are shown the sender has not sent any weather packets the latest 10 day(s).
| Time | Temp. | Humidity | Pressure | Rain* | Wind** | Luminosity | Snow |
|---|---|---|---|---|---|---|---|
| 1777790625 | 26.11° C | 70% | 1015.9 hPa | 0 mm | - | - | - |
| 1777790023 | 26.67° C | 70% | 1015.7 hPa | 0 mm | - | - | - |
| 1777789422 | 26.67° C | 70% | 1015.6 hPa | 0 mm | - | - | - |
| 1777788822 | 27.22° C | 70% | 1015.6 hPa | 0 mm | - | - | - |
| 1777788557 | 27.22° C | 70% | 1015.5 hPa | 0 mm | - | - | - |
| 1777788155 | 27.78° C | 70% | 1015.5 hPa | 0 mm | - | - | - |
| 1777787554 | 28.33° C | 70% | 1015.6 hPa | 0 mm | - | - | - |
| 1777786953 | 29.44° C | 70% | 1015.6 hPa | 0 mm | - | - | - |
| 1777786352 | 30° C | 70% | 1015.6 hPa | 0 mm | - | - | - |
| 1777785751 | 30.56° C | 70% | 1015.6 hPa | 0 mm | - | - | - |
| 1777785150 | 31.11° C | 70% | 1015.5 hPa | 0 mm | - | - | - |
| 1777783948 | 31.11° C | 70% | 1015.6 hPa | 0 mm | - | - | - |
| 1777783347 | 31.11° C | 70% | 1015.6 hPa | 0 mm | - | - | - |
| 1777782144 | 31.11° C | 70% | 1015.6 hPa | 0 mm | - | - | - |
| 1777781543 | 31.11° C | 70% | 1015.7 hPa | 0 mm | - | - | - |
| 1777780942 | 31.11° C | 70% | 1015.6 hPa | 0 mm | - | - | - |
| 1777778538 | 30° C | 70% | 1015.8 hPa | 0 mm | - | - | - |
| 1777777937 | 30.56° C | 70% | 1016.1 hPa | 0 mm | - | - | - |
| 1777777336 | 30° C | 70% | 1016.1 hPa | 0 mm | - | - | - |
| 1777776735 | 30° C | 70% | 1016.3 hPa | 0 mm | - | - | - |
| 1777775533 | 29.44° C | 70% | 1016.4 hPa | 0 mm | - | - | - |
| 1777774932 | 28.89° C | 70% | 1016.6 hPa | 0 mm | - | - | - |
| 1777774331 | 28.89° C | 70% | 1016.8 hPa | 0 mm | - | - | - |
| 1777773129 | 28.33° C | 70% | 1017.2 hPa | 0 mm | - | - | - |
| 1777772527 | 27.78° C | 70% | 1017.4 hPa | 0 mm | - | - | - |
* Rain since midnight (hover to see other rain measurements)
** Current wind speed in m/s (hover to see current wind gust speed)